Location: Bagnolo San Vito
(45.0833°N, 10.8833°E)
Time: 23:43:58
(UTC+00:00)

Cosmos 1515 - Pass Details

Date: 03 March 2021
Orbit: 504 x 516 km, 82.5° (Epoch: 17 April)

Event Time Altitude Azimuth Distance (km) Brightness Sun altitude
Rises 17:54:33 0° 352° (N) 2,646 7.4 -9.2°
Reaches altitude 10° 17:56:42 10° 354° (N) 1,752 6.5 -9.6°
Maximum altitude 18:00:33 76° 80° (E) 535 3.6 -10.3°
Drops below altitude 10° 18:04:21 10° 167° (SSE) 1,731 6.2 -11.0°
Sets 18:06:27 0° 169° (S) 2,610 7.1 -11.3°
